OneWeb SL0148

operational
NORAD ID: 48059 Int'l Des: 2021-025 Owner: ONEWEBN Country: UK Constellation: oneweb
LEOCIRCULARPOLARONEWEB_TYPE

About OneWeb SL0148

Description loading...

Live Position

Loading 3D Globe...

Upcoming Passes

Altitude History

Altitude vs Time

uPlot chart will show altitude changes over time

Two-Line Element Set

1 48059U 21025T 26034.27751084 -.00000239 00000-0 -68930-3 0 9990
2 48059 87.9025 346.8481 0002430 81.3153 278.8251 13.13471533236031
Epoch: Feb 3, 2026 • Age: 24 hours

Current Status

Altitude 1219.0 km
Velocity 7.25 km/s
Sub-Earth Point 62.02°N, 77.14°W
Launch Date Mar 25, 2021
Age 4.8 years
Type internet

Technical Details

Classification Payload
Mass 148.00 kg
Dry Mass 140.00 kg
Total Mass 148.00 kg
Length 1.30 m
Diameter 1.00 m
Span 5.00 m
Shape Trapezoid+2 pan
Manufacturer ONEWUS
Bus Type ARROW
Phase Status In Orbit
Owner/State ONEWEBN/UK

Large Constellations

Loading constellations...